AirNav   TITAN Aviation Fuels
 
 1312 users online  

74S Anacortes Airport
Anacortes, Washington, USA

GOING TO ANACORTES?


FAA INFORMATION EFFECTIVE 09 SEPTEMBER 2021

Location

FAA Identifier: 74S
Lat/Long: 48-29-54.6000N 122-39-45.0000W
48-29.910000N 122-39.750000W
48.4985000,-122.6625000
(estimated)
Elevation: 241 ft. / 73.5 m (surveyed)
Variation: 21E (1985)
From city: 2 miles W of ANACORTES, WA
Time zone: UTC -7 (UTC -8 during Standard Time)
Zip code: 98221

Airport Operations

Airport use: Open to the public
Activation date: 12/1970
Control tower: no
ARTCC: SEATTLE CENTER
FSS: SEATTLE FLIGHT SERVICE STATION
NOTAMs facility: SEA (NOTAM-D service available)
Attendance: UNATNDD
Wind indicator: yes
Segmented circle: yes
Lights: ACTVT MIRL & REILS RY 18/36 - CTAF.
Beacon: white-green (lighted land airport)
Operates sunset to sunrise.
International operations: customs landing rights airport

Airport Communications

CTAF: 128.25
WX ASOS at NUW (9 nm S): PHONE 360-257-8813
WX AWOS-3 at BVS (10 nm E): 121.125 (360-757-7767)
WX ASOS at FHR (14 nm W): 135.675 (360-378-8491)
WX AWOS-3 at OKH (15 nm S): 132.775 (360-675-8431)
WX AWOS-3 at ORS (16 nm NW): 135.425 (360-376-6045)
WX ASOS at BLI (18 nm N): PHONE 360-671-8688

Nearby radio navigation aids

VOR radial/distance  VOR name  Freq  Var
CVVr350/15.4PENN COVE VOR/DME117.2019E
HUHr167/27.0WHATCOM VORTAC113.0020E
YYJr096/35.4VICTORIA VOR/DME113.7017E
PAEr316/38.0PAINE VOR/DME110.6020E
YVRr134/39.7VANCOUVER VOR/DME115.9017E

 
NDB name  Hdg/Dist  Freq  Var  ID
SKAGIT/BAY VIEW264/9.924016EBVS -... ...- ...
FRIDAY HARBOR076/14.428417EFHR ..-. .... .-.
EDIZ HOOK037/36.633817ENOW -. --- .--

Airport Services

Fuel available: 100 JET-A
Parking: tiedowns
Airframe service: NONE
Powerplant service: NONE
Bottled oxygen: NONE
Bulk oxygen: NONE

Runway Information

Runway 18/36

Dimensions: 3015 x 60 ft. / 919 x 18 m
Surface: asphalt/grooved, in good condition
Weight bearing capacity: 
Single wheel: 12.5
Runway edge lights: medium intensity
RUNWAY 18  RUNWAY 36
Latitude: 48-30.142760N48-29.676647N
Longitude: 122-39.621757W122-39.876798W
Elevation: 233.0 ft.241.0 ft.
Traffic pattern: rightleft
Runway heading: 179 magnetic, 200 true359 magnetic, 020 true
Markings: basic, in good conditionbasic, in good condition
Visual slope indicator: 4-light PAPI on right (3.00 degrees glide path)4-light PAPI on left (3.00 degrees glide path)
Runway end identifier lights: yesyes
Obstructions: 22 ft. tree, 767 ft. from runway, 25:1 slope to clear20 ft. trees, 1158 ft. from runway, 46:1 slope to clear

Airport Ownership and Management from official FAA records

Ownership: Publicly-owned
Owner: PORT OF ANACORTES
100 COMMERCIAL AVENUE
ANACORTES, WA 98221
Phone 360-293-3134
Manager: JOHN DUMAS
100 COMMERCIAL AVENUE
ANACORTES, WA 98221
Phone 360-293-3134

Airport Operational Statistics

Aircraft based on the field: 26
Single engine airplanes: 26
    
Aircraft operations: avg 25/day *
44% transient general aviation
39% local general aviation
17% air taxi
* for 12-month period ending 31 December 2019

Additional Remarks

MILITARY ARRIVAL CORRIDOR N & W OF ARPT.
RWY 36 PREFERRED CALM WIND RY.
NOISE ABATEMENT PROCEDURES IN EFFECT; CTC AMGR 360-293-3134.
NO TOUCH & GO LDGS.
FOR CD CTC WHIDBEY APCH AT 360-257-3310.

Instrument Procedures

There are no published instrument procedures at 74S.

Some nearby airports with instrument procedures:

KNUW - Whidbey Island Naval Air Station (Ault Field) (9 nm S)
KBVS - Skagit Regional Airport (10 nm E)
KFHR - Friday Harbor Airport (14 nm W)
KOKH - AJ Eisenberg Airport (15 nm S)
KORS - Orcas Island Airport (16 nm NW)
KBLI - Bellingham International Airport (18 nm N)
 
Loc | Ops | Rwys | IFR | FBO | Links
Com | Nav | Svcs | Stats | Notes
Area around 74S (Anacortes Airport)
 
Road maps at: MapQuest Bing Google
 
Aerial photo
WARNING: Photo may not be current or correct
Aerial photo of 74S (Anacortes Airport)
Photo by S. Paulay
Photo taken 04-Jul-2007

Do you have a better or more recent aerial photo of Anacortes Airport that you would like to share? If so, please send us your photo.

 
Sectional chart

 
Airport distance calculator
Flying to Anacortes Airport? Find the distance to fly.

From to 74S

Sunrise and sunset
Times for 16-Sep-2021
 Local
(UTC-7)
 Zulu
(UTC)
Morning civil twilight06:1813:18
Sunrise06:5013:50
Sunset19:2102:21
Evening civil twilight19:5202:52

Current date and time
Zulu (UTC)  16-Sep-2021 22:14:49
Local (UTC-7)  16-Sep-2021 15:14:49
 
METAR
KNUW 
9nm S 
162156Z 27006KT 10SM FEW025 BKN250 15/08 A3013 RMK AO2 SLP202 T01500078
KBVS 
10nm E 
162155Z AUTO 30004KT 8SM CLR 19/07 A3008 RMK A01
KFHR 
15nm W 
162153Z AUTO VRB04KT 10SM CLR 17/07 A3010 RMK AO2 SLP194 T01720072 TSNO
KORS 
15nm NW 
162155Z AUTO 32006KT 10SM CLR 14/09 A3010 RMK AO2
KBLI 
19nm N 
162153Z 36006KT 10SM CLR 19/06 A3009 RMK AO2 SLP195 T01890061
TAF
KNUW 
9nm S 
1615/1715 VRB06KT 9999 FEW015 SCT250 QNH3017INS FM161800 VRB06KT 9999 FEW030 SCT180 BKN250 QNH2996INS FM170600 13006KT 9999 VCSH FEW010 SCT120 BKN200 QNH2977INS TEMPO 1710/1715 10010G16KT 9999 -RA SCT010 BKN050 OVC150 T17/1623Z T11/1713Z FS30004
KBLI 
19nm N 
161720Z 1618/1718 25005KT P6SM SCT250 FM170200 VRB03KT P6SM OVC200 FM170900 VRB03KT P6SM OVC100 FM171400 05008KT P6SM -RA OVC050
NOTAMs
Click for the latest NOTAMs
NOTAMs are issued by the DoD/FAA and will open in a separate window not controlled by AirNav.

 

 
 

FBO, Fuel Providers, and Aircraft Ground Support

  
 Business Name 
 
 Contact 
 
 Services / Description 
 
Fuel Prices
 
Comments
  
 Port of Anacortes
360-293-3134
[web site]
[email]
Airport management, Aviation fuel, Aircraft parking (ramp or tiedown), Aerial tours / aerial sightseeing, Aircraft charters, Scheduled airline carrier

More info about Port of Anacortes
Phillips 66
100LL Jet A
SS $5.25 $3.75 
 Updated 10-Sep-2021
 
   2 read write
SS=Self service
Update Fuel Prices
 

Would you like to see your business listed on this page?

 If your business provides an interesting product or service to pilots, flight crews, aircraft, or users of the Anacortes Airport, you should consider listing it here.  To start the listing process, click on the button below
 
Add a business
 

Other Pages about Anacortes Airport

www.portofanacortes.com/airport
 
Update a link
 
Copyright © AirNav, LLC. All rights reserved. Privacy Policy  Contact